GFSCGP_con_mucape_372.txt.gz
CAPE
114 38 149 459 382 642 506 439 411 129 378 330 325 322 252 352 489 436 420 402 238 12 8 23 96 136 186 222 249 330 296 325 388 650 639 733 708 602 644 812 908 557 859 1264
118 102 157 179 241 420 456 561 255 28 188 337 304 447 413 463 485 492 499 473 521 165 45 49 146 212 255 325 412 388 417 458 525 736 795 841 888 925 790 831 897 896 716 960
86 159 296 172 231 189 41 246 26 5 316 291 436 147 387 429 576 630 575 533 624 422 317 196 377 428 267 483 427 485 554 753 643 839 1009 1071 1197 1299 1299 1242 1322 1149 1168 1179
406 239 122 101 260 435 168 9 6 1 139 469 286 5 382 425 605 599 693 650 776 715 646 612 512 756 823 715 695 609 883 1041 1102 1145 1190 1233 1411 1444 1528 1674 1797 1745 1673 1432
170 203 291 239 268 64 44 18 5 4 53 14 3 0 0 186 377 412 568 633 771 842 958 846 696 774 938 939 1012 1008 949 1141 1288 1516 1451 1431 1582 1794 1933 2060 2188 2225 2109 2040
285 256 230 166 151 207 172 0 22 49 37 11 18 3 10 1 116 342 32 410 761 793 891 959 925 852 1019 1140 1171 1279 1231 1285 1404 1572 1706 1752 1726 1743 1890 2044 2221 2436 2992 3065
49 2 7 83 137 148 1 4 18 44 51 20 25 2 13 5 0 0 0 21 443 711 803 907 974 896 1007 1174 1227 1398 1446 1503 1576 1753 1959 1678 1808 2018 2286 2404 2647 3029 3386 3640
126 134 145 132 122 20 7 4 14 34 10 35 20 22 0 0 5 0 0 29 11 46 322 778 913 1007 1023 1175 1280 1474 1641 1681 1768 2042 2364 2381 2132 2088 2350 2619 2857 3386 3597 3403
70 37 65 17 0 0 6 0 0 0 16 5 0 22 3 0 0 14 0 1 4 51 93 441 815 989 1137 1321 1374 1481 1564 1723 1939 2048 2494 2922 2833 2837 2910 3202 3412 3394 3628 3140
121 117 14 0 4 0 0 0 0 0 0 1 0 0 0 14 6 21 1 26 42 39 257 547 782 979 816 1192 1284 1291 1201 1470 2071 2495 2761 3322 3559 3245 3358 3519 3856 3717 3446 3529
123 140 0 12 0 0 0 0 0 0 0 0 0 0 0 6 7 0 5 51 87 173 186 241 312 340 350 358 526 471 1912 2323 2933 3261 3121 3122 3526 3737 3784 3547 3414 3370 3369 2981
205 178 71 19 0 0 0 0 0 0 0 0 0 0 0 0 0 0 76 117 119 479 591 582 783 979 884 812 706 670 2899 3425 3264 3168 2927 2316 285 2834 3648 3624 3430 3180 2903 2778
200 151 119 0 0 0 0 0 0 0 0 0 0 12 0 0 103 110 117 128 123 120 91 504 699 1131 1460 1355 1210 2577 3233 3208 2807 2949 1422 304 62 805 3261 3595 3377 3280 3320 3188
121 34 0 0 0 0 0 0 0 0 0 0 46 45 55 44 59 154 159 158 142 164 268 763 1188 1386 2149 2233 2672 2929 2815 1950 607 1783 881 685 173 425 3065 3296 3444 3385 3313 3163
58 17 0 0 0 0 0 0 0 0 0 0 8 96 155 153 160 170 140 170 144 104 318 978 1177 1914 2438 2406 2379 2248 1819 1489 1158 1209 914 532 168 781 1628 1198 2431 2890 2921 2438
0 0 41 0 0 0 0 0 0 0 0 41 100 89 156 160 150 81 5 0 0 296 394 588 659 647 645 868 895 823 774 783 602 608 369 147 68 154 538 1095 1034 1286 1950 2412
0 0 0 0 0 0 0 0 0 0 3 31 72 29 75 80 57 3 0 5 141 178 231 620 626 628 652 621 704 781 882 916 627 603 242 760 291 191 692 777 1289 1685 2053 2105
0 0 0 0 0 0 0 0 0 3 39 72 79 89 84 46 20 0 8 99 123 146 159 492 574 762 887 885 857 781 1116 1357 1343 654 684 827 1178 994 886 1057 929 984 1174 1208
15 2 0 0 0 0 16 37 38 22 25 70 87 45 28 15 5 4 88 140 182 126 131 144 386 390 290 505 751 761 912 729 1052 974 857 827 682 661 719 670 581 702 879 1015
0 8 19 0 0 0 17 45 51 127 130 152 99 43 29 47 13 0 107 45 51 74 85 60 72 30 0 90 338 210 400 313 399 739 540 568 624 658 490 497 589 684 977 830
0 17 29 13 0 0 6 2 26 61 58 45 32 48 21 0 0 28 13 12 4 1 9 10 8 0 0 0 152 101 166 140 159 734 676 914 886 708 610 788 780 711 728 672
2 12 3 0 0 0 0 15 26 15 23 16 24 9 0 0 0 12 36 4 0 0 0 0 18 27 31 6 49 48 297 499 432 638 903 670 623 620 629 732 664 639 535 458
1 0 0 3 20 0 0 0 0 0 0 0 0 5 0 0 0 32 109 15 0 0 1 0 88 84 18 190 121 60 359 474 364 427 314 358 438 366 471 451 504 457 514 485
0 0 0 0 0 0 0 0 0 0 0 1 0 0 0 0 0 0 15 67 6 42 89 135 233 90 38 0 0 119 183 288 323 288 517 432 270 415 399 365 414 443 466 383
0 0 0 0 0 0 0 0 0 0 0 0 0 0 0 0 0 0 0 0 4 20 34 46 37 36 16 8 0 0 1 106 275 384 290 297 343 401 333 380 387 410 304 297
0 0 0 0 9 12 0 0 0 0 0 0 0 0 0 0 0 0 0 0 3 6 1 14 20 33 70 26 27 36 79 189 181 184 276 295 312 274 269 279 272 271 279 238

GFSCGP_con_mucape_375.txt.gz
CAPE
123 219 0 143 249 502 391 374 438 350 246 184 294 235 78 200 345 410 401 376 346 14 42 60 86 109 114 176 247 310 553 660 844 795 738 824 903 792 623 609 726 789 1010 1196
102 76 110 188 308 503 445 514 394 299 241 258 271 288 119 245 437 470 472 389 454 46 18 47 73 99 145 203 294 324 443 626 804 691 744 703 621 631 632 584 674 926 945 952
53 107 156 135 201 190 166 163 166 280 151 381 339 304 223 217 346 521 580 567 511 499 29 44 94 125 177 263 319 347 414 608 604 667 591 636 769 851 828 790 686 750 949 1003
179 232 217 217 235 189 390 58 52 78 289 334 326 14 207 350 457 566 623 658 619 590 531 318 109 259 344 379 364 387 464 499 466 566 651 763 786 863 939 1041 928 985 1099 1138
221 164 235 193 224 279 96 25 59 190 106 142 312 58 0 315 476 556 670 756 868 830 804 658 498 309 455 778 746 649 595 589 802 960 999 938 847 946 1078 1266 1341 1382 1509 1619
264 253 270 262 188 111 105 53 10 27 35 2 190 142 0 48 329 590 649 659 854 1021 891 972 858 725 634 528 835 1004 1047 957 910 1018 1199 1324 1414 1493 1469 1441 1494 1592 1730 1996
128 163 116 191 73 78 61 9 8 28 31 16 1 0 0 13 9 49 237 403 696 898 893 992 1008 943 816 734 743 1037 1150 1190 1039 979 1160 1343 1515 1629 1662 1709 1743 1836 1931 2341
132 122 155 139 138 100 12 6 7 2 4 0 0 0 0 0 3 11 79 204 410 384 722 963 1087 1119 1132 1035 861 859 1132 1298 1319 1352 1292 1406 1530 1550 1676 1851 1858 1875 2000 2312
107 81 125 120 23 0 0 0 0 0 3 0 0 0 0 0 2 0 0 0 0 10 448 802 939 1019 1115 1238 1243 1075 1072 1234 1393 1414 1454 1508 1630 1707 1840 2181 2222 2372 2476 2708
137 110 11 0 0 0 0 0 0 0 0 0 0 0 0 0 0 0 0 0 0 19 54 194 468 753 917 1029 1097 1135 1180 1181 1136 1324 1485 1660 2359 2376 2198 1098 1 402 1245 2912
96 73 42 0 0 0 0 0 0 0 0 0 0 0 0 0 0 0 0 1 13 38 148 285 362 446 570 552 389 489 1043 1850 2087 1864 1977 2478 2349 2276 1650 883 401 15 32 1087
75 141 135 127 44 0 0 0 0 0 0 0 0 0 0 0 49 49 116 207 258 303 416 586 749 1027 1171 1024 1089 1051 2333 2771 2854 3040 3017 2871 2853 1274 805 354 433 100 19 1843
108 201 88 0 0 0 0 0 0 0 0 0 0 1 19 29 38 38 47 47 120 266 437 564 716 1043 1570 1910 1945 1726 2529 2657 2533 1962 1718 1533 1312 977 627 400 532 1357 1940 2476
57 97 62 6 0 0 0 0 0 0 0 0 0 0 0 42 74 75 76 99 131 454 684 909 1447 1956 2050 2208 2340 2495 2687 2557 1962 1101 993 1042 911 555 387 654 1594 1757 1196 806
59 116 5 0 0 0 0 0 0 0 0 0 4 38 40 64 88 111 142 149 182 321 414 489 492 570 959 1042 1107 1339 1604 1527 711 592 408 308 259 179 111 16 632 1131 834 708
22 5 0 0 0 0 0 0 0 0 1 15 46 85 166 172 178 190 194 136 223 324 306 380 382 347 309 353 354 466 645 869 750 427 352 341 547 854 720 539 685 688 855 839
20 10 0 3 0 0 1 0 0 0 19 47 113 149 179 197 207 153 73 52 92 355 332 375 415 413 437 390 343 302 576 815 910 783 439 390 337 398 329 418 519 617 553 618
0 0 0 0 0 0 0 0 7 8 25 73 90 94 30 42 46 52 48 76 65 196 334 307 215 112 200 328 253 385 538 389 421 521 566 398 234 285 268 404 406 330 281 421
4 0 0 0 0 0 6 0 1 9 2 41 22 22 40 30 15 33 73 38 21 17 9 153 74 2 19 177 299 273 176 219 171 237 438 453 322 419 408 384 97 41 269 287
0 0 2 2 6 0 0 11 27 23 4 0 31 49 37 21 30 7 37 41 28 2 0 0 19 19 4 1 61 90 11 5 40 185 151 418 438 458 442 291 182 125 300 328
1 2 5 1 4 19 27 35 21 25 10 4 31 36 37 36 1 43 51 24 5 0 0 1 1 4 10 21 33 28 6 14 172 302 362 495 626 414 339 327 263 251 312 303
0 0 0 0 0 1 3 23 42 43 39 32 25 21 11 1 10 22 37 19 0 0 0 0 51 68 113 69 28 9 0 17 171 209 224 190 244 364 281 264 281 283 275 283
0 0 0 0 0 3 32 46 47 36 1 0 0 1 0 0 0 0 8 22 0 0 0 5 7 7 4 0 0 0 0 0 0 30 154 272 246 241 286 278 274 266 293 293
0 0 0 0 0 11 22 16 0 0 0 0 0 0 0 0 0 0 0 0 0 0 0 0 0 0 0 0 0 0 0 5 23 26 50 86 134 186 194 216 252 239 203 303
0 0 0 0 0 0 0 0 0 0 0 0 0 0 0 0 0 0 0 0 0 0 0 0 0 0 0 0 0 0 0 2 5 11 5 30 52 105 175 222 172 130 136 145
0 0 0 0 0 0 0 0 0 0 0 0 0 0 0 0 0 0 0 0 0 0 0 0 0 0 0 0 0 0 0 5 5 6 1 36 56 336 673 236 57 49 49 75

GFSCGP_con_mucape_378.txt.gz
CAPE
233 190 261 145 342 341 281 303 340 389 305 245 152 330 264 148 284 307 220 257 333 22 35 82 111 138 193 196 203 295 375 486 563 633 890 770 658 624 676 728 938 1060 926 1041
0 25 44 131 191 179 347 339 301 222 101 283 236 258 285 173 173 241 340 417 422 268 29 53 117 165 195 252 238 246 351 498 657 764 866 1069 912 849 883 890 915 993 921 1034
22 13 45 86 81 77 83 86 59 60 158 294 334 302 309 232 165 300 413 492 571 589 387 26 49 112 120 212 230 256 335 480 643 743 850 1070 1005 918 917 958 976 847 821 878
29 61 91 161 181 145 98 105 96 159 229 242 297 14 167 294 218 260 355 456 577 693 670 442 54 88 115 199 229 294 396 450 541 683 863 1045 915 911 858 845 743 674 618 683
107 69 162 200 183 171 171 74 2 98 240 233 259 142 0 145 252 306 351 465 564 613 687 712 628 228 153 306 586 359 423 464 488 588 791 970 873 856 818 798 908 918 867 746
110 141 133 187 185 216 158 84 0 118 106 1 31 170 0 26 286 385 421 510 644 793 851 916 933 848 671 441 463 720 853 702 618 602 718 859 1043 1165 1245 1272 1289 1200 1142 1244
53 55 125 228 101 69 106 91 7 1 0 2 0 120 127 31 35 173 386 446 572 685 807 778 928 968 949 894 705 604 658 912 1082 1102 1048 934 933 1018 1171 1239 1280 1282 1318 1474
78 84 97 126 114 93 89 46 5 2 0 0 0 0 0 0 24 63 84 86 221 253 372 665 911 1001 989 1075 1079 1102 1109 1056 849 969 954 1002 1130 1094 976 1112 1284 1623 1690 1726
128 75 75 96 129 79 12 0 0 0 0 0 0 0 2 0 18 62 45 80 17 0 30 258 429 598 784 915 1010 1084 1178 1172 1153 1108 1040 1008 1049 1057 1271 1525 1571 1540 1687 1473
132 118 67 84 87 17 0 0 0 0 0 0 0 0 0 0 0 0 0 0 0 29 63 96 172 252 394 467 620 673 826 930 962 953 1016 1017 1104 1164 1293 1417 1327 1484 1637 1476
90 86 16 39 21 13 0 0 0 0 0 0 0 0 0 0 0 0 0 4 32 81 139 279 466 786 1012 1260 1487 1871 2192 2452 2511 2553 2028 1454 1527 1642 1756 1897 1607 1626 1203 896
49 103 116 43 84 14 0 0 0 0 0 0 0 0 0 0 0 4 20 33 76 147 350 688 1064 1265 1404 1653 2007 2356 2490 2470 2607 2667 2637 2367 2198 2075 1033 970 764 569 422 257
76 116 127 4 0 0 0 0 0 0 0 0 0 0 0 0 16 44 75 114 159 240 510 851 1160 1427 1510 1483 1561 1599 1588 1759 1812 1664 1343 1431 1824 653 531 273 199 416 649 403
50 125 138 49 4 0 0 0 0 0 0 0 0 0 1 0 2 23 45 84 118 194 173 154 239 297 406 389 400 483 585 610 695 915 747 453 351 516 658 281 464 1104 1088 1404
43 79 58 1 0 0 0 0 0 0 0 0 0 0 12 15 21 2 4 55 57 145 181 113 78 60 67 60 52 85 149 338 546 623 506 336 333 383 417 393 438 702 962 933
27 16 3 7 14 0 0 0 0 0 0 0 0 0 0 7 6 17 34 101 117 106 79 81 108 116 74 36 21 10 10 67 226 212 184 216 277 281 274 233 282 454 702 666
26 34 17 5 1 1 0 0 0 0 0 0 0 4 14 46 86 116 138 106 119 69 87 136 154 101 49 3 26 0 3 81 44 18 23 58 84 82 135 314 444 488 483 362
14 78 49 2 0 0 0 0 0 0 0 6 27 71 73 88 94 80 47 28 132 172 186 233 76 4 0 0 24 21 71 30 5 15 18 89 152 252 324 444 484 550 414 310
1 2 0 0 0 0 0 0 0 1 9 35 36 22 17 27 36 15 9 31 44 55 67 70 13 0 0 0 0 35 61 0 0 0 0 0 40 167 283 294 434 452 332 337
7 16 1 0 0 0 0 0 6 5 11 4 0 6 17 8 5 5 66 42 11 0 0 0 0 0 0 0 6 0 0 0 0 0 0 0 16 57 124 171 252 297 300 336
0 7 4 5 7 7 20 13 1 0 0 0 4 2 6 7 18 9 34 13 0 0 0 0 0 0 1 0 0 0 0 0 0 0 0 0 0 1 23 59 150 199 245 289
6 3 5 1 5 11 0 0 14 0 0 1 6 16 15 7 16 16 18 8 0 0 0 0 0 0 0 0 0 0 0 0 0 0 0 0 0 0 6 29 51 138 208 277
12 0 1 2 1 0 2 0 0 0 7 11 3 0 0 0 0 0 4 7 0 0 0 0 0 0 0 0 0 0 0 0 0 0 2 3 1 2 0 21 121 120 336 292
0 0 1 0 0 0 0 2 20 6 0 0 0 0 0 0 0 0 0 0 0 0 0 0 0 0 0 0 0 0 0 0 2 2 0 6 10 0 75 232 146 61 36 42
0 0 0 0 0 0 0 0 0 0 0 0 0 0 0 0 0 0 0 0 0 0 0 0 0 0 0 0 0 0 0 0 0 0 0 4 0 4 2 12 15 51 15 6
1 0 0 0 0 0 0 0 0 0 0 0 0 0 0 0 0 0 0 0 0 0 0 0 0 0 2 0 0 0 0 0 0 0 0 0 0 5 11 7 89 97 8 11

GFSCGP_con_mucape_381.txt.gz
CAPE
112 259 394 546 489 240 217 450 622 569 465 408 371 401 299 133 100 202 196 183 269 85 111 111 122 122 162 457 762 982 1119 1768 1154 943 772 813 1059 1126 1318 1482 1652 1860 1937 1962
30 114 104 105 447 259 382 430 403 290 167 651 347 474 394 206 203 205 220 367 506 389 180 188 168 170 171 225 363 884 1217 1405 1451 1261 1269 1252 1493 1474 1450 1453 1466 1563 1672 1915
102 28 47 59 177 191 227 259 316 222 398 438 473 539 617 498 314 214 207 304 496 641 620 303 246 235 226 277 395 698 1301 1529 1670 1836 1397 1484 1506 1524 1513 1574 1583 1638 1643 1751
98 46 151 237 271 218 321 192 172 268 390 490 253 55 115 449 466 445 468 441 409 563 725 746 491 338 265 322 381 502 1054 1563 1486 1827 1790 2167 1688 1714 1899 1953 1782 1805 1781 1873
135 154 215 285 325 269 350 0 135 208 193 382 325 397 195 27 309 554 615 665 654 738 616 719 825 735 371 350 427 494 881 1213 1585 1884 1965 1781 2086 1960 1891 1839 2116 2205 2299 1808
340 175 88 169 170 207 94 0 65 63 122 223 24 407 125 61 296 443 501 630 799 995 854 802 843 945 972 817 549 586 953 1590 1288 1607 1674 2320 2382 2417 2010 2046 1646 1788 1826 1826
52 95 157 197 226 156 110 71 79 105 125 120 19 225 250 128 45 59 240 530 510 617 960 898 798 878 957 1125 1104 1005 1053 1588 1313 1251 1715 2092 2306 2543 2606 2629 2012 2083 1820 1969
144 115 84 88 132 24 153 49 32 99 25 77 5 216 108 14 20 24 31 34 43 118 84 496 476 537 617 725 848 993 1119 1650 1520 1221 2001 1996 2149 1653 2067 2288 2129 1940 2185 2461
173 103 81 71 80 24 39 6 0 0 0 9 23 58 30 0 16 28 32 41 63 83 128 197 272 412 510 588 660 759 776 1035 1195 1420 1703 2078 2289 2363 2088 2548 2722 2282 3142 1787
187 278 56 68 76 47 10 0 0 0 29 18 0 0 60 29 0 0 76 154 179 318 674 1238 1134 1599 1990 2107 2297 2620 2556 2652 2600 2293 1981 1816 1931 2105 2355 2467 2727 2581 2122 1538
147 113 157 63 66 40 15 0 0 0 0 22 5 0 0 0 0 0 0 65 379 697 1121 1484 1673 1679 2115 2457 2116 1925 2482 2446 2662 3092 2913 2256 2107 2006 2058 2003 1956 1837 1777 1708
120 104 222 114 46 32 15 8 0 0 0 0 0 0 0 0 0 0 3 318 532 792 1137 1507 1563 1262 1034 1167 1266 1023 1133 1139 1277 1934 2344 1824 1976 1978 1071 938 880 898 854 976
53 92 282 10 6 8 6 0 0 0 0 0 0 3 0 0 0 0 69 252 409 446 615 750 760 696 676 726 866 885 897 1057 1048 1042 1018 1119 1291 1210 662 873 941 819 1044 1581
49 134 105 50 6 0 0 0 0 0 0 0 0 5 0 0 0 0 100 238 349 425 435 450 433 492 502 546 555 621 606 823 945 1075 1001 991 962 780 602 854 1121 1036 1296 1678
60 121 88 42 13 0 0 0 0 0 0 0 0 1 53 0 0 0 98 213 308 379 311 348 310 275 277 264 318 434 309 511 804 813 674 742 804 823 914 1155 1284 1364 1718 1748
27 16 9 15 10 0 0 0 0 2 0 0 0 0 0 0 0 0 179 214 290 282 301 309 209 85 92 140 350 502 356 660 768 724 719 947 1138 1184 1287 1287 1356 1548 1616 1561
65 3 0 9 0 0 1 13 11 9 0 0 1 0 0 0 0 0 138 223 253 251 270 300 121 92 214 270 465 591 712 809 715 425 431 793 711 762 1040 1290 1378 1327 1766 1866
0 1 0 22 16 33 28 4 2 4 1 0 0 0 0 0 4 7 43 201 313 291 302 299 242 205 151 206 135 111 260 514 311 38 0 8 102 352 603 934 1037 1512 1574 1167
27 43 56 24 28 23 15 1 4 11 2 0 0 0 0 4 27 56 48 130 331 321 235 216 122 169 360 88 81 67 60 20 0 0 0 1 56 191 436 677 1052 1034 1158 972
15 28 0 4 34 39 63 0 0 0 67 0 0 0 0 13 0 1 126 112 99 69 53 31 1 24 58 33 0 0 0 0 0 1 3 30 237 374 447 538 660 792 883 848
32 81 95 110 99 12 2 11 6 65 54 0 0 0 0 0 0 0 150 126 64 26 21 33 8 0 0 0 0 0 0 1 4 6 10 23 69 84 220 324 338 522 659 537
57 149 86 25 79 18 0 1 91 27 0 0 0 0 0 0 12 98 118 58 38 34 0 0 0 0 0 0 0 0 2 5 8 12 6 3 18 9 44 53 48 36 267 166
3 0 24 6 4 0 0 0 0 0 0 0 1 7 81 74 60 117 128 56 5 0 0 0 0 0 0 0 4 3 6 10 3 0 10 5 5 3 3 21 29 124 208 26
0 0 9 28 0 0 0 0 0 0 0 0 1 0 3 31 44 52 44 3 0 0 0 0 0 0 0 9 6 8 11 10 0 8 9 5 9 0 1 3 29 82 19 28
0 4 7 0 0 0 0 0 0 0 0 0 0 0 6 11 9 12 0 0 0 0 0 0 0 5 9 1 0 0 0 0 0 0 0 0 0 0 2 2 26 63 147 8
6 15 30 1 230 112 30 0 0 0 0 0 1 0 0 1 8 0 0 0 0 0 0 0 6 2 3 0 2 0 0 0 0 0 0 0 0 2 1 2 0 0 6 3